Time,TemperatureF,DewpointF,PressureIn,WindDirection,WindDirectionDegrees,WindSpeedMPH,WindSpeedGustMPH,Humidity,HourlyPrecipIn,Conditions,Clouds,dailyrainin,SoftwareType,DateUTC
2013-01-17 00:00:00,31.6,28.5,30.27,ENE,76,1.0,5.0,88,0.00,,,0.00,Wunderground v.1.15,2013-01-17 06:00:00,
2013-01-17 00:05:00,31.4,28.3,30.27,East,94,1.0,5.0,88,0.00,,,0.00,Wunderground v.1.15,2013-01-17 06:05:00,
2013-01-17 00:10:00,31.2,28.1,30.27,WSW,256,1.0,5.0,88,0.00,,,0.00,Wunderground v.1.15,2013-01-17 06:10:00,
2013-01-17 00:15:00,31.0,28.1,30.27,ESE,105,1.0,5.0,89,0.00,,,0.00,Wunderground v.1.15,2013-01-17 06:15:00,
2013-01-17 00:20:00,30.8,27.9,30.28,ENE,70,1.0,5.0,89,0.00,,,0.00,Wunderground v.1.15,2013-01-17 06:20:00,
2013-01-17 00:25:00,30.6,27.7,30.28,East,94,1.0,5.0,89,0.00,,,0.00,Wunderground v.1.15,2013-01-17 06:25:00,
2013-01-17 00:35:00,30.3,27.7,30.28,East,91,1.0,5.0,90,0.00,,,0.00,Wunderground v.1.15,2013-01-17 06:35:00,
2013-01-17 00:40:00,30.1,27.5,30.29,ESE,113,1.0,1.0,90,0.00,,,0.00,Wunderground v.1.15,2013-01-17 06:40:00,
2013-01-17 00:45:00,30.0,27.4,30.30,NW,321,1.0,5.0,90,0.00,,,0.00,Wunderground v.1.15,2013-01-17 06:45:00,
2013-01-17 00:50:00,30.0,27.4,30.30,ESE,104,0.0,5.0,90,0.00,,,0.00,Wunderground v.1.15,2013-01-17 06:50:00,
2013-01-17 00:55:00,29.8,27.2,30.31,East,79,0.0,5.0,90,0.00,,,0.00,Wunderground v.1.15,2013-01-17 06:55:00,
2013-01-17 01:00:00,29.6,27.0,30.31,NNE,29,0.0,5.0,90,0.00,,,0.00,Wunderground v.1.15,2013-01-17 07:00:00,
2013-01-17 01:05:00,29.5,26.9,30.32,North,3,0.0,5.0,90,0.00,,,0.00,Wunderground v.1.15,2013-01-17 07:05:00,
2013-01-17 01:15:00,29.2,26.6,30.33,WSW,240,0.0,5.0,90,0.00,,,0.00,Wunderground v.1.15,2013-01-17 07:15:00,
2013-01-17 01:20:00,29.2,26.6,30.33,WSW,257,0.0,5.0,90,0.00,,,0.00,Wunderground v.1.15,2013-01-17 07:20:00,
2013-01-17 01:25:00,29.1,26.5,30.33,WSW,248,0.0,5.0,90,0.00,,,0.00,Wunderground v.1.15,2013-01-17 07:25:00,
2013-01-17 01:30:00,29.0,26.4,30.33,East,81,0.0,5.0,90,0.00,,,0.00,Wunderground v.1.15,2013-01-17 07:30:00,
2013-01-17 01:35:00,28.9,26.3,30.34,SSW,211,0.0,5.0,90,0.00,,,0.00,Wunderground v.1.15,2013-01-17 07:35:00,
2013-01-17 01:40:00,28.8,26.2,30.34,WSW,254,0.0,5.0,90,0.00,,,0.00,Wunderground v.1.15,2013-01-17 07:40:00,
2013-01-17 01:45:00,28.7,26.1,30.34,West,271,0.0,5.0,90,0.00,,,0.00,Wunderground v.1.15,2013-01-17 07:45:00,
2013-01-17 01:55:00,28.5,25.9,30.34,WSW,244,0.0,5.0,90,0.00,,,0.00,Wunderground v.1.15,2013-01-17 07:55:00,
2013-01-17 02:05:00,28.3,25.7,30.34,East,86,0.0,5.0,90,0.00,,,0.00,Wunderground v.1.15,2013-01-17 08:05:00,
2013-01-17 02:10:00,28.2,25.6,30.34,West,263,0.0,5.0,90,0.00,,,0.00,Wunderground v.1.15,2013-01-17 08:10:00,
2013-01-17 02:15:00,28.1,25.5,30.34,West,266,0.0,5.0,90,0.00,,,0.00,Wunderground v.1.15,2013-01-17 08:15:00,
2013-01-17 02:20:00,28.0,25.2,30.35,South,171,0.0,5.0,89,0.00,,,0.00,Wunderground v.1.15,2013-01-17 08:20:00,
2013-01-17 02:30:00,27.8,25.0,30.35,East,94,0.0,5.0,89,0.00,,,0.00,Wunderground v.1.15,2013-01-17 08:30:00,
2013-01-17 02:35:00,27.8,25.0,30.34,WNW,293,0.0,5.0,89,0.00,,,0.00,Wunderground v.1.15,2013-01-17 08:35:00,
2013-01-17 02:40:00,27.7,24.9,30.35,West,278,0.0,5.0,89,0.00,,,0.00,Wunderground v.1.15,2013-01-17 08:40:00,
2013-01-17 02:45:00,27.6,24.8,30.35,West,259,0.0,5.0,89,0.00,,,0.00,Wunderground v.1.15,2013-01-17 08:45:00,
2013-01-17 02:50:00,27.5,24.7,30.35,West,259,0.0,5.0,89,0.00,,,0.00,Wunderground v.1.15,2013-01-17 08:50:00,
2013-01-17 02:55:00,27.3,24.5,30.36,West,259,0.0,5.0,89,0.00,,,0.00,Wunderground v.1.15,2013-01-17 08:55:00,
2013-01-17 03:05:00,27.0,24.2,30.36,West,259,0.0,5.0,89,0.00,,,0.00,Wunderground v.1.15,2013-01-17 09:05:00,
2013-01-17 03:10:00,26.9,24.1,30.37,West,259,0.0,5.0,89,0.00,,,0.00,Wunderground v.1.15,2013-01-17 09:10:00,
2013-01-17 03:15:00,26.7,24.2,30.37,WSW,257,0.0,5.0,90,0.00,,,0.00,Wunderground v.1.15,2013-01-17 09:15:00,
2013-01-17 03:20:00,26.8,24.5,30.37,WSW,257,0.0,5.0,91,0.00,,,0.00,Wunderground v.1.15,2013-01-17 09:20:00,
2013-01-17 03:25:00,26.9,24.6,30.37,ESE,104,0.0,5.0,91,0.00,,,0.00,Wunderground v.1.15,2013-01-17 09:25:00,
2013-01-17 03:30:00,27.0,24.7,30.37,SE,129,0.0,5.0,91,0.00,,,0.00,Wunderground v.1.15,2013-01-17 09:30:00,
2013-01-17 03:40:00,27.0,24.7,30.37,SE,127,0.0,5.0,91,0.00,,,0.00,Wunderground v.1.15,2013-01-17 09:40:00,
2013-01-17 03:45:00,26.9,24.6,30.37,SSE,149,0.0,5.0,91,0.00,,,0.00,Wunderground v.1.15,2013-01-17 09:45:00,
2013-01-17 03:50:00,26.9,24.6,30.37,WSW,245,0.0,5.0,91,0.00,,,0.00,Wunderground v.1.15,2013-01-17 09:50:00,
2013-01-17 03:55:00,26.7,24.4,30.37,WSW,245,0.0,5.0,91,0.00,,,0.00,Wunderground v.1.15,2013-01-17 09:55:00,
2013-01-17 04:00:00,26.6,24.3,30.37,WSW,245,0.0,5.0,91,0.00,,,0.00,Wunderground v.1.15,2013-01-17 10:00:00,
2013-01-17 04:05:00,26.4,24.1,30.37,WSW,245,0.0,5.0,91,0.00,,,0.00,Wunderground v.1.15,2013-01-17 10:05:00,
2013-01-17 04:10:00,26.2,23.9,30.36,WSW,245,0.0,5.0,91,0.00,,,0.00,Wunderground v.1.15,2013-01-17 10:10:00,
2013-01-17 04:20:00,26.1,24.1,30.37,WSW,245,0.0,5.0,92,0.00,,,0.00,Wunderground v.1.15,2013-01-17 10:20:00,
2013-01-17 04:25:00,26.0,24.0,30.38,WSW,245,0.0,5.0,92,0.00,,,0.00,Wunderground v.1.15,2013-01-17 10:25:00,
2013-01-17 04:30:00,26.0,24.0,30.38,WSW,245,0.0,5.0,92,0.00,,,0.00,Wunderground v.1.15,2013-01-17 10:30:00,
2013-01-17 04:35:00,25.9,23.9,30.38,West,261,0.0,5.0,92,0.00,,,0.00,Wunderground v.1.15,2013-01-17 10:35:00,
2013-01-17 04:40:00,25.8,23.8,30.38,West,262,0.0,5.0,92,0.00,,,0.00,Wunderground v.1.15,2013-01-17 10:40:00,
2013-01-17 04:45:00,25.7,23.7,30.39,West,261,0.0,5.0,92,0.00,,,0.00,Wunderground v.1.15,2013-01-17 10:45:00,
2013-01-17 04:55:00,25.7,23.7,30.39,West,261,0.0,5.0,92,0.00,,,0.00,Wunderground v.1.15,2013-01-17 10:55:00,
2013-01-17 05:05:00,25.4,23.7,30.38,West,262,0.0,5.0,93,0.00,,,0.00,Wunderground v.1.15,2013-01-17 11:05:00,
2013-01-17 05:10:00,25.5,23.8,30.38,West,262,0.0,5.0,93,0.00,,,0.00,Wunderground v.1.15,2013-01-17 11:10:00,
2013-01-17 05:15:00,25.4,23.7,30.38,West,262,0.0,5.0,93,0.00,,,0.00,Wunderground v.1.15,2013-01-17 11:15:00,
2013-01-17 05:20:00,25.3,23.6,30.38,West,262,0.0,5.0,93,0.00,,,0.00,Wunderground v.1.15,2013-01-17 11:20:00,
2013-01-17 05:25:00,25.3,23.6,30.38,West,262,0.0,5.0,93,0.00,,,0.00,Wunderground v.1.15,2013-01-17 11:25:00,
2013-01-17 05:30:00,25.3,23.6,30.38,West,261,0.0,5.0,93,0.00,,,0.00,Wunderground v.1.15,2013-01-17 11:30:00,
2013-01-17 05:40:00,25.1,23.4,30.39,West,262,0.0,5.0,93,0.00,,,0.00,Wunderground v.1.15,2013-01-17 11:40:00,
2013-01-17 05:45:00,24.9,23.2,30.39,West,262,0.0,5.0,93,0.00,,,0.00,Wunderground v.1.15,2013-01-17 11:45:00,
2013-01-17 05:50:00,24.9,23.4,30.39,West,261,0.0,5.0,94,0.00,,,0.00,Wunderground v.1.15,2013-01-17 11:50:00,
2013-01-17 05:55:00,25.1,23.9,30.40,West,261,0.0,5.0,95,0.00,,,0.00,Wunderground v.1.15,2013-01-17 11:55:00,
2013-01-17 06:00:00,25.2,23.7,30.40,West,262,0.0,5.0,94,0.00,,,0.00,Wunderground v.1.15,2013-01-17 12:00:00,
2013-01-17 06:10:00,24.8,23.3,30.40,West,262,0.0,5.0,94,0.00,,,0.00,Wunderground v.1.15,2013-01-17 12:10:00,
2013-01-17 06:20:00,24.9,23.7,30.40,West,262,0.0,5.0,95,0.00,,,0.00,Wunderground v.1.15,2013-01-17 12:20:00,
2013-01-17 06:25:00,25.0,23.8,30.40,West,262,0.0,5.0,95,0.00,,,0.00,Wunderground v.1.15,2013-01-17 12:25:00,
2013-01-17 06:30:00,25.1,23.9,30.41,West,261,0.0,5.0,95,0.00,,,0.00,Wunderground v.1.15,2013-01-17 12:30:00,
2013-01-17 06:35:00,24.9,23.7,30.41,West,261,0.0,5.0,95,0.00,,,0.00,Wunderground v.1.15,2013-01-17 12:35:00,
2013-01-17 06:40:00,24.7,23.2,30.40,West,261,0.0,5.0,94,0.00,,,0.00,Wunderground v.1.15,2013-01-17 12:40:00,
2013-01-17 06:45:00,24.5,23.0,30.41,West,262,0.0,5.0,94,0.00,,,0.00,Wunderground v.1.15,2013-01-17 12:45:00,
2013-01-17 06:50:00,24.4,22.9,30.41,West,262,0.0,5.0,94,0.00,,,0.00,Wunderground v.1.15,2013-01-17 12:50:00,
2013-01-17 06:55:00,24.4,23.2,30.41,West,262,0.0,5.0,95,0.00,,,0.00,Wunderground v.1.15,2013-01-17 12:55:00,
2013-01-17 07:05:00,24.2,22.7,30.41,West,262,0.0,5.0,94,0.00,,,0.00,Wunderground v.1.15,2013-01-17 13:05:00,
2013-01-17 07:10:00,24.2,23.0,30.41,West,262,0.0,5.0,95,0.00,,,0.00,Wunderground v.1.15,2013-01-17 13:10:00,
2013-01-17 07:15:00,24.5,23.3,30.40,West,262,0.0,5.0,95,0.00,,,0.00,Wunderground v.1.15,2013-01-17 13:15:00,
2013-01-17 07:20:00,24.5,23.3,30.41,West,261,0.0,5.0,95,0.00,,,0.00,Wunderground v.1.15,2013-01-17 13:20:00,
2013-01-17 07:25:00,24.5,23.3,30.41,West,261,0.0,5.0,95,0.00,,,0.00,Wunderground v.1.15,2013-01-17 13:25:00,
2013-01-17 07:35:00,24.9,23.7,30.41,West,261,0.0,5.0,95,0.00,,,0.00,Wunderground v.1.15,2013-01-17 13:35:00,
2013-01-17 07:40:00,25.2,24.0,30.42,West,262,0.0,5.0,95,0.00,,,0.00,Wunderground v.1.15,2013-01-17 13:40:00,
2013-01-17 07:45:00,25.6,24.6,30.42,West,261,0.0,5.0,96,0.00,,,0.00,Wunderground v.1.15,2013-01-17 13:45:00,
2013-01-17 07:50:00,26.0,25.0,30.43,West,263,0.0,5.0,96,0.00,,,0.00,Wunderground v.1.15,2013-01-17 13:50:00,
2013-01-17 07:55:00,26.2,25.2,30.43,WNW,290,0.0,5.0,96,0.00,,,0.00,Wunderground v.1.15,2013-01-17 13:55:00,
2013-01-17 08:00:00,26.3,25.3,30.43,WNW,289,0.0,5.0,96,0.00,,,0.00,Wunderground v.1.15,2013-01-17 14:00:00,
2013-01-17 08:05:00,26.5,25.5,30.43,WNW,289,0.0,5.0,96,0.00,,,0.00,Wunderground v.1.15,2013-01-17 14:05:00,
2013-01-17 08:10:00,26.5,25.5,30.43,WNW,290,0.0,5.0,96,0.00,,,0.00,Wunderground v.1.15,2013-01-17 14:10:00,
2013-01-17 08:15:00,26.5,25.3,30.43,NW,326,0.0,5.0,95,0.00,,,0.00,Wunderground v.1.15,2013-01-17 14:15:00,
2013-01-17 08:25:00,26.5,25.3,30.44,East,81,0.0,5.0,95,0.00,,,0.00,Wunderground v.1.15,2013-01-17 14:25:00,
2013-01-17 08:30:00,26.5,25.5,30.44,East,81,0.0,5.0,96,0.00,,,0.00,Wunderground v.1.15,2013-01-17 14:30:00,
2013-01-17 08:35:00,26.6,25.6,30.45,East,80,0.0,5.0,96,0.00,,,0.00,Wunderground v.1.15,2013-01-17 14:35:00,
2013-01-17 08:40:00,26.7,25.7,30.44,East,81,0.0,5.0,96,0.00,,,0.00,Wunderground v.1.15,2013-01-17 14:40:00,
2013-01-17 08:45:00,26.7,25.7,30.45,East,80,0.0,5.0,96,0.00,,,0.00,Wunderground v.1.15,2013-01-17 14:45:00,
2013-01-17 08:50:00,26.7,25.7,30.45,East,80,0.0,5.0,96,0.00,,,0.00,Wunderground v.1.15,2013-01-17 14:50:00,
2013-01-17 09:00:00,26.6,25.4,30.45,East,81,0.0,0.0,95,0.00,,,0.00,Wunderground v.1.15,2013-01-17 15:00:00,
2013-01-17 09:10:00,26.9,25.9,30.46,East,79,0.0,0.0,96,0.00,,,0.00,Wunderground v.1.15,2013-01-17 15:10:00,
2013-01-17 09:15:00,27.0,25.8,30.46,NW,312,0.0,0.0,95,0.00,,,0.00,Wunderground v.1.15,2013-01-17 15:15:00,
2013-01-17 09:20:00,27.1,25.9,30.47,NW,310,0.0,0.0,95,0.00,,,0.00,Wunderground v.1.15,2013-01-17 15:20:00,
2013-01-17 09:25:00,27.1,25.9,30.47,NW,308,0.0,0.0,95,0.00,,,0.00,Wunderground v.1.15,2013-01-17 15:25:00,
2013-01-17 09:30:00,27.2,25.7,30.48,ESE,122,0.0,0.0,94,0.00,,,0.00,Wunderground v.1.15,2013-01-17 15:30:00,
2013-01-17 09:35:00,27.4,25.9,30.48,SSW,193,0.0,1.0,94,0.00,,,0.00,Wunderground v.1.15,2013-01-17 15:35:00,
2013-01-17 09:40:00,27.3,25.5,30.48,SSE,155,0.0,1.0,93,0.00,,,0.00,Wunderground v.1.15,2013-01-17 15:40:00,
2013-01-17 09:45:00,27.1,25.3,30.48,ESE,104,0.0,1.0,93,0.00,,,0.00,Wunderground v.1.15,2013-01-17 15:45:00,
2013-01-17 09:50:00,27.1,25.3,30.48,ESE,105,0.0,1.0,93,0.00,,,0.00,Wunderground v.1.15,2013-01-17 15:50:00,
2013-01-17 10:00:00,26.9,25.1,30.49,West,276,0.0,1.0,93,0.00,,,0.00,Wunderground v.1.15,2013-01-17 16:00:00,
2013-01-17 10:05:00,27.0,25.2,30.49,West,275,0.0,1.0,93,0.00,,,0.00,Wunderground v.1.15,2013-01-17 16:05:00,
2013-01-17 10:10:00,27.5,26.0,30.49,West,276,0.0,1.0,94,0.00,,,0.00,Wunderground v.1.15,2013-01-17 16:10:00,
2013-01-17 10:15:00,27.8,26.0,30.49,West,276,0.0,1.0,93,0.00,,,0.00,Wunderground v.1.15,2013-01-17 16:15:00,
2013-01-17 10:20:00,28.1,26.3,30.49,West,280,0.0,1.0,93,0.00,,,0.00,Wunderground v.1.15,2013-01-17 16:20:00,
2013-01-17 10:25:00,28.1,26.1,30.49,West,280,0.0,1.0,92,0.00,,,0.00,Wunderground v.1.15,2013-01-17 16:25:00,
2013-01-17 10:30:00,28.0,25.7,30.49,WSW,257,0.0,2.0,91,0.00,,,0.00,Wunderground v.1.15,2013-01-17 16:30:00,
2013-01-17 10:35:00,27.9,25.6,30.49,West,276,1.0,2.0,91,0.00,,,0.00,Wunderground v.1.15,2013-01-17 16:35:00,
2013-01-17 10:40:00,27.7,25.7,30.49,West,274,0.0,1.0,92,0.00,,,0.00,Wunderground v.1.15,2013-01-17 16:40:00,
2013-01-17 10:50:00,27.8,25.8,30.49,WSW,256,0.0,1.0,92,0.00,,,0.00,Wunderground v.1.15,2013-01-17 16:50:00,
2013-01-17 10:55:00,27.8,26.0,30.49,WNW,290,1.0,2.0,93,0.00,,,0.00,Wunderground v.1.15,2013-01-17 16:55:00,
2013-01-17 11:00:00,28.0,26.2,30.48,WSW,249,1.0,3.0,93,0.00,,,0.00,Wunderground v.1.15,2013-01-17 17:00:00,
2013-01-17 11:05:00,28.2,26.7,30.48,WSW,252,2.0,3.0,94,0.00,,,0.00,Wunderground v.1.15,2013-01-17 17:05:00,
2013-01-17 11:10:00,28.3,26.8,30.48,SE,135,2.0,2.0,94,0.00,,,0.00,Wunderground v.1.15,2013-01-17 17:10:00,
2013-01-17 11:15:00,28.3,26.8,30.48,South,171,2.0,2.0,94,0.00,,,0.00,Wunderground v.1.15,2013-01-17 17:15:00,
2013-01-17 11:20:00,28.2,26.7,30.48,West,266,2.0,2.0,94,0.00,,,0.00,Wunderground v.1.15,2013-01-17 17:20:00,
2013-01-17 11:30:00,28.4,26.9,30.48,NW,314,1.0,1.0,94,0.00,,,0.00,Wunderground v.1.15,2013-01-17 17:30:00,
2013-01-17 11:35:00,28.6,27.4,30.48,West,264,1.0,2.0,95,0.00,,,0.00,Wunderground v.1.15,2013-01-17 17:35:00,
2013-01-17 11:40:00,28.5,27.0,30.48,WSW,238,1.0,1.0,94,0.00,,,0.00,Wunderground v.1.15,2013-01-17 17:40:00,
2013-01-17 11:45:00,28.6,27.4,30.47,SE,146,1.0,1.0,95,0.00,,,0.00,Wunderground v.1.15,2013-01-17 17:45:00,
2013-01-17 11:50:00,28.8,27.5,30.47,NW,304,0.0,2.0,95,0.00,,,0.00,Wunderground v.1.15,2013-01-17 17:50:00,
2013-01-17 11:55:00,28.8,27.3,30.47,West,276,1.0,3.0,94,0.00,,,0.00,Wunderground v.1.15,2013-01-17 17:55:00,
2013-01-17 12:00:00,28.8,27.5,30.47,SSW,200,1.0,1.0,95,0.00,,,0.00,Wunderground v.1.15,2013-01-17 18:00:00,
2013-01-17 12:05:00,29.0,27.7,30.47,SE,146,0.0,1.0,95,0.00,,,0.00,Wunderground v.1.15,2013-01-17 18:05:00,
2013-01-17 12:10:00,29.2,27.9,30.47,West,271,0.0,1.0,95,0.00,,,0.00,Wunderground v.1.15,2013-01-17 18:10:00,
2013-01-17 12:20:00,29.4,28.1,30.46,South,181,0.0,1.0,95,0.00,,,0.00,Wunderground v.1.15,2013-01-17 18:20:00,
2013-01-17 12:25:00,29.6,28.3,30.46,SE,136,0.0,1.0,95,0.00,,,0.00,Wunderground v.1.15,2013-01-17 18:25:00,
2013-01-17 12:30:00,30.0,28.7,30.46,West,276,0.0,1.0,95,0.00,,,0.00,Wunderground v.1.15,2013-01-17 18:30:00,
2013-01-17 12:35:00,30.5,29.5,30.46,West,277,0.0,1.0,96,0.00,,,0.00,Wunderground v.1.15,2013-01-17 18:35:00,
2013-01-17 12:40:00,30.7,29.4,30.46,West,277,0.0,1.0,95,0.00,,,0.00,Wunderground v.1.15,2013-01-17 18:40:00,
2013-01-17 12:45:00,30.9,29.6,30.46,West,277,0.0,1.0,95,0.00,,,0.00,Wunderground v.1.15,2013-01-17 18:45:00,
2013-01-17 12:55:00,30.9,29.1,30.45,West,267,0.0,1.0,93,0.00,,,0.00,Wunderground v.1.15,2013-01-17 18:55:00,
2013-01-17 13:00:00,30.9,29.1,30.45,West,281,0.0,1.0,93,0.00,,,0.00,Wunderground v.1.15,2013-01-17 19:00:00,
2013-01-17 13:05:00,30.9,29.4,30.45,West,278,0.0,1.0,94,0.00,,,0.00,Wunderground v.1.15,2013-01-17 19:05:00,
2013-01-17 13:10:00,31.0,29.5,30.44,SSE,149,0.0,1.0,94,0.00,,,0.00,Wunderground v.1.15,2013-01-17 19:10:00,
2013-01-17 13:15:00,31.1,29.6,30.44,West,281,0.0,1.0,94,0.00,,,0.00,Wunderground v.1.15,2013-01-17 19:15:00,
2013-01-17 13:20:00,31.0,29.2,30.44,West,266,1.0,1.0,93,0.00,,,0.00,Wunderground v.1.15,2013-01-17 19:20:00,
2013-01-17 13:25:00,31.0,29.5,30.44,West,271,1.0,1.0,94,0.00,,,0.00,Wunderground v.1.15,2013-01-17 19:25:00,
2013-01-17 13:30:00,31.2,29.7,30.44,West,266,0.0,1.0,94,0.00,,,0.00,Wunderground v.1.15,2013-01-17 19:30:00,
2013-01-17 13:35:00,31.3,29.8,30.43,West,271,0.0,1.0,94,0.00,,,0.00,Wunderground v.1.15,2013-01-17 19:35:00,
2013-01-17 13:40:00,31.6,30.1,30.43,SSE,167,1.0,1.0,94,0.00,,,0.00,Wunderground v.1.15,2013-01-17 19:40:00,
2013-01-17 13:50:00,31.8,30.3,30.42,SE,128,1.0,1.0,94,0.00,,,0.00,Wunderground v.1.15,2013-01-17 19:50:00,
2013-01-17 13:55:00,31.8,30.3,30.43,SE,136,1.0,1.0,94,0.00,,,0.00,Wunderground v.1.15,2013-01-17 19:55:00,
2013-01-17 14:00:00,32.0,30.5,30.42,WNW,286,1.0,1.0,94,0.00,,,0.00,Wunderground v.1.15,2013-01-17 20:00:00,
2013-01-17 14:05:00,32.0,30.2,30.42,West,278,1.0,1.0,93,0.00,,,0.00,Wunderground v.1.15,2013-01-17 20:05:00,
2013-01-17 14:10:00,32.2,30.4,30.42,WSW,249,1.0,1.0,93,0.00,,,0.00,Wunderground v.1.15,2013-01-17 20:10:00,
2013-01-17 14:15:00,32.5,30.7,30.42,SE,139,0.0,1.0,93,0.00,,,0.00,Wunderground v.1.15,2013-01-17 20:15:00,
2013-01-17 14:20:00,32.5,30.7,30.43,West,270,0.0,1.0,93,0.00,,,0.00,Wunderground v.1.15,2013-01-17 20:20:00,
2013-01-17 14:25:00,32.5,30.4,30.43,WSW,242,1.0,1.0,92,0.00,,,0.00,Wunderground v.1.15,2013-01-17 20:25:00,
2013-01-17 14:35:00,32.4,30.6,30.43,WNW,297,0.0,1.0,93,0.00,,,0.00,Wunderground v.1.15,2013-01-17 20:35:00,
2013-01-17 14:40:00,32.4,30.6,30.43,WNW,292,0.0,1.0,93,0.00,,,0.00,Wunderground v.1.15,2013-01-17 20:40:00,
2013-01-17 14:45:00,32.7,30.9,30.43,WNW,286,0.0,1.0,93,0.00,,,0.00,Wunderground v.1.15,2013-01-17 20:45:00,
2013-01-17 14:50:00,32.7,30.9,30.42,West,259,0.0,1.0,93,0.00,,,0.00,Wunderground v.1.15,2013-01-17 20:50:00,
2013-01-17 14:55:00,32.5,30.7,30.42,West,262,0.0,1.0,93,0.00,,,0.00,Wunderground v.1.15,2013-01-17 20:55:00,
2013-01-17 15:00:00,32.5,30.7,30.43,ESE,113,1.0,1.0,93,0.00,,,0.00,Wunderground v.1.15,2013-01-17 21:00:00,
2013-01-17 15:05:00,32.6,31.1,30.43,SE,131,0.0,1.0,94,0.00,,,0.00,Wunderground v.1.15,2013-01-17 21:05:00,
2013-01-17 15:10:00,32.7,30.9,30.43,WSW,253,0.0,1.0,93,0.00,,,0.00,Wunderground v.1.15,2013-01-17 21:10:00,
2013-01-17 15:15:00,32.9,31.1,30.43,WSW,253,0.0,1.0,93,0.00,,,0.00,Wunderground v.1.15,2013-01-17 21:15:00,
2013-01-17 15:20:00,33.0,31.2,30.43,WSW,253,0.0,1.0,93,0.00,,,0.00,Wunderground v.1.15,2013-01-17 21:20:00,
2013-01-17 15:30:00,33.0,30.9,30.43,NW,304,0.0,1.0,92,0.00,,,0.00,Wunderground v.1.15,2013-01-17 21:30:00,
2013-01-17 15:35:00,32.7,30.9,30.43,West,281,1.0,1.0,93,0.00,,,0.00,Wunderground v.1.15,2013-01-17 21:35:00,
2013-01-17 15:40:00,32.7,30.9,30.42,South,169,1.0,1.0,93,0.00,,,0.00,Wunderground v.1.15,2013-01-17 21:40:00,
2013-01-17 15:45:00,32.8,31.3,30.42,SE,142,0.0,1.0,94,0.00,,,0.00,Wunderground v.1.15,2013-01-17 21:45:00,
2013-01-17 15:55:00,32.4,30.6,30.42,NW,319,1.0,1.0,93,0.00,,,0.00,Wunderground v.1.15,2013-01-17 21:55:00,
2013-01-17 16:00:00,32.2,30.4,30.42,SE,143,1.0,1.0,93,0.00,,,0.00,Wunderground v.1.15,2013-01-17 22:00:00,
2013-01-17 16:05:00,31.8,30.3,30.42,West,278,1.0,1.0,94,0.00,,,0.00,Wunderground v.1.15,2013-01-17 22:05:00,
2013-01-17 16:10:00,31.7,30.2,30.42,East,96,1.0,2.0,94,0.00,,,0.00,Wunderground v.1.15,2013-01-17 22:10:00,
2013-01-17 16:20:00,31.8,30.5,30.43,SSE,150,0.0,1.0,95,0.00,,,0.00,Wunderground v.1.15,2013-01-17 22:20:00,
2013-01-17 16:25:00,31.9,30.6,30.43,West,266,0.0,1.0,95,0.00,,,0.00,Wunderground v.1.15,2013-01-17 22:25:00,
2013-01-17 16:30:00,31.8,30.3,30.43,West,277,0.0,1.0,94,0.00,,,0.00,Wunderground v.1.15,2013-01-17 22:30:00,
2013-01-17 16:35:00,31.6,30.1,30.43,West,277,0.0,1.0,94,0.00,,,0.00,Wunderground v.1.15,2013-01-17 22:35:00,
2013-01-17 16:40:00,31.7,30.4,30.43,West,277,0.0,1.0,95,0.00,,,0.00,Wunderground v.1.15,2013-01-17 22:40:00,
2013-01-17 16:45:00,31.7,30.4,30.43,West,277,0.0,1.0,95,0.00,,,0.00,Wunderground v.1.15,2013-01-17 22:45:00,
2013-01-17 16:55:00,31.6,30.3,30.43,West,277,0.0,1.0,95,0.00,,,0.00,Wunderground v.1.15,2013-01-17 22:55:00,
2013-01-17 17:05:00,31.4,30.1,30.43,South,174,0.0,1.0,95,0.00,,,0.00,Wunderground v.1.15,2013-01-17 23:05:00,
2013-01-17 17:10:00,31.3,30.0,30.43,WSW,248,0.0,1.0,95,0.00,,,0.00,Wunderground v.1.15,2013-01-17 23:10:00,
2013-01-17 17:15:00,31.2,29.9,30.43,WSW,248,0.0,1.0,95,0.00,,,0.00,Wunderground v.1.15,2013-01-17 23:15:00,
2013-01-17 17:20:00,31.2,29.9,30.44,WSW,248,0.0,1.0,95,0.00,,,0.00,Wunderground v.1.15,2013-01-17 23:20:00,
2013-01-17 17:25:00,31.0,29.7,30.43,WSW,248,0.0,1.0,95,0.00,,,0.00,Wunderground v.1.15,2013-01-17 23:25:00,
2013-01-17 17:30:00,30.8,29.5,30.43,WSW,248,0.0,1.0,95,0.00,,,0.00,Wunderground v.1.15,2013-01-17 23:30:00,
2013-01-17 17:35:00,30.7,29.4,30.43,WSW,248,0.0,1.0,95,0.00,,,0.00,Wunderground v.1.15,2013-01-17 23:35:00,
2013-01-17 17:40:00,30.5,29.2,30.43,WSW,248,0.0,1.0,95,0.00,,,0.00,Wunderground v.1.15,2013-01-17 23:40:00,
2013-01-17 17:50:00,30.1,28.8,30.42,WSW,248,0.0,1.0,95,0.00,,,0.00,Wunderground v.1.15,2013-01-17 23:50:00,
2013-01-17 17:55:00,30.0,28.7,30.42,WSW,248,0.0,1.0,95,0.00,,,0.00,Wunderground v.1.15,2013-01-17 23:55:00,
2013-01-17 18:00:00,29.8,28.8,30.42,WSW,248,0.0,1.0,96,0.00,,,0.00,Wunderground v.1.15,2013-01-18 00:00:00,
2013-01-17 18:05:00,29.7,28.7,30.42,WSW,247,0.0,1.0,96,0.00,,,0.00,Wunderground v.1.15,2013-01-18 00:05:00,
2013-01-17 18:10:00,29.5,28.5,30.42,WSW,248,0.0,1.0,96,0.00,,,0.00,Wunderground v.1.15,2013-01-18 00:10:00,
2013-01-17 18:15:00,29.3,28.3,30.42,WSW,247,0.0,1.0,96,0.00,,,0.00,Wunderground v.1.15,2013-01-18 00:15:00,
2013-01-17 18:20:00,29.2,28.2,30.42,WSW,247,0.0,1.0,96,0.00,,,0.00,Wunderground v.1.15,2013-01-18 00:20:00,
2013-01-17 18:25:00,28.9,27.9,30.42,WSW,248,0.0,1.0,96,0.00,,,0.00,Wunderground v.1.15,2013-01-18 00:25:00,
2013-01-17 18:35:00,28.6,27.6,30.42,WSW,248,0.0,1.0,96,0.00,,,0.00,Wunderground v.1.15,2013-01-18 00:35:00,
2013-01-17 18:40:00,28.4,27.4,30.42,WSW,247,0.0,1.0,96,0.00,,,0.00,Wunderground v.1.15,2013-01-18 00:40:00,
2013-01-17 18:45:00,28.3,27.3,30.42,WSW,248,0.0,1.0,96,0.00,,,0.00,Wunderground v.1.15,2013-01-18 00:45:00,
2013-01-17 18:50:00,28.2,27.2,30.42,WSW,248,0.0,1.0,96,0.00,,,0.00,Wunderground v.1.15,2013-01-18 00:50:00,
2013-01-17 18:55:00,28.1,27.1,30.42,WSW,248,0.0,1.0,96,0.00,,,0.00,Wunderground v.1.15,2013-01-18 00:55:00,
2013-01-17 19:00:00,28.0,27.0,30.42,WSW,248,0.0,1.0,96,0.00,,,0.00,Wunderground v.1.15,2013-01-18 01:00:00,
2013-01-17 19:10:00,27.8,26.8,30.42,WSW,248,0.0,1.0,96,0.00,,,0.00,Wunderground v.1.15,2013-01-18 01:10:00,
2013-01-17 19:15:00,27.7,26.7,30.41,ESE,111,0.0,1.0,96,0.00,,,0.00,Wunderground v.1.15,2013-01-18 01:15:00,
2013-01-17 19:20:00,27.7,26.7,30.41,ESE,112,0.0,1.0,96,0.00,,,0.00,Wunderground v.1.15,2013-01-18 01:20:00,
2013-01-17 19:25:00,27.6,26.6,30.41,ESE,110,0.0,1.0,96,0.00,,,0.00,Wunderground v.1.15,2013-01-18 01:25:00,
2013-01-17 19:30:00,27.5,26.5,30.41,ESE,110,0.0,1.0,96,0.00,,,0.00,Wunderground v.1.15,2013-01-18 01:30:00,
2013-01-17 19:35:00,27.5,26.5,30.41,ESE,111,0.0,1.0,96,0.00,,,0.00,Wunderground v.1.15,2013-01-18 01:35:00,
2013-01-17 19:45:00,27.5,26.5,30.41,ESE,115,0.0,1.0,96,0.00,,,0.00,Wunderground v.1.15,2013-01-18 01:45:00,
2013-01-17 19:50:00,27.4,26.4,30.41,ESE,115,0.0,1.0,96,0.00,,,0.00,Wunderground v.1.15,2013-01-18 01:50:00,
2013-01-17 19:55:00,27.4,26.4,30.41,ESE,115,0.0,1.0,96,0.00,,,0.00,Wunderground v.1.15,2013-01-18 01:55:00,
2013-01-17 20:00:00,27.7,27.0,30.41,ESE,116,0.0,1.0,97,0.00,,,0.00,Wunderground v.1.15,2013-01-18 02:00:00,
2013-01-17 20:05:00,27.7,27.0,30.41,ESE,115,0.0,1.0,97,0.00,,,0.00,Wunderground v.1.15,2013-01-18 02:05:00,
2013-01-17 20:10:00,27.7,27.0,30.40,ESE,116,0.0,1.0,97,0.00,,,0.00,Wunderground v.1.15,2013-01-18 02:10:00,
2013-01-17 20:20:00,27.7,27.0,30.40,ESE,115,0.0,1.0,97,0.00,,,0.00,Wunderground v.1.15,2013-01-18 02:20:00,
2013-01-17 20:25:00,27.8,27.1,30.40,ESE,116,0.0,1.0,97,0.00,,,0.00,Wunderground v.1.15,2013-01-18 02:25:00,
2013-01-17 20:30:00,28.1,27.4,30.40,ESE,115,0.0,1.0,97,0.00,,,0.00,Wunderground v.1.15,2013-01-18 02:30:00,
2013-01-17 20:35:00,28.2,27.5,30.39,ESE,115,0.0,1.0,97,0.00,,,0.00,Wunderground v.1.15,2013-01-18 02:35:00,
2013-01-17 20:40:00,28.3,27.6,30.39,ESE,116,0.0,1.0,97,0.00,,,0.00,Wunderground v.1.15,2013-01-18 02:40:00,
2013-01-17 20:45:00,28.3,27.6,30.39,ESE,116,0.0,1.0,97,0.00,,,0.00,Wunderground v.1.15,2013-01-18 02:45:00,
2013-01-17 20:55:00,28.2,27.5,30.39,ESE,116,0.0,1.0,97,0.00,,,0.00,Wunderground v.1.15,2013-01-18 02:55:00,
2013-01-17 21:05:00,28.2,27.5,30.39,ESE,116,0.0,1.0,97,0.00,,,0.00,Wunderground v.1.15,2013-01-18 03:05:00,
2013-01-17 21:10:00,28.3,27.6,30.39,SE,137,0.0,1.0,97,0.00,,,0.00,Wunderground v.1.15,2013-01-18 03:10:00,
2013-01-17 21:15:00,28.4,27.7,30.38,SE,127,0.0,1.0,97,0.00,,,0.00,Wunderground v.1.15,2013-01-18 03:15:00,
2013-01-17 21:20:00,28.5,27.8,30.38,SE,127,0.0,1.0,97,0.00,,,0.00,Wunderground v.1.15,2013-01-18 03:20:00,
2013-01-17 21:30:00,28.8,28.1,30.38,SE,127,0.0,1.0,97,0.00,,,0.00,Wunderground v.1.15,2013-01-18 03:30:00,
2013-01-17 21:40:00,29.0,28.3,30.37,ESE,116,0.0,1.0,97,0.00,,,0.00,Wunderground v.1.15,2013-01-18 03:40:00,
2013-01-17 21:45:00,29.0,28.3,30.37,SE,136,0.0,1.0,97,0.00,,,0.00,Wunderground v.1.15,2013-01-18 03:45:00,
2013-01-17 21:50:00,29.1,28.4,30.37,SE,131,0.0,1.0,97,0.00,,,0.00,Wunderground v.1.15,2013-01-18 03:50:00,
2013-01-17 22:00:00,29.0,28.3,30.37,SE,129,0.0,1.0,97,0.00,,,0.00,Wunderground v.1.15,2013-01-18 04:00:00,
2013-01-17 22:05:00,28.9,28.2,30.37,SE,129,0.0,1.0,97,0.00,,,0.00,Wunderground v.1.15,2013-01-18 04:05:00,
2013-01-17 22:10:00,28.8,28.1,30.36,SE,129,0.0,1.0,97,0.00,,,0.00,Wunderground v.1.15,2013-01-18 04:10:00,
2013-01-17 22:15:00,28.7,28.0,30.36,SE,127,0.0,1.0,97,0.00,,,0.00,Wunderground v.1.15,2013-01-18 04:15:00,
2013-01-17 22:20:00,28.6,27.9,30.36,SE,127,0.0,1.0,97,0.00,,,0.00,Wunderground v.1.15,2013-01-18 04:20:00,
2013-01-17 22:30:00,28.6,27.9,30.36,SE,127,0.0,1.0,97,0.00,,,0.00,Wunderground v.1.15,2013-01-18 04:30:00,
2013-01-17 22:35:00,28.8,28.1,30.35,ESE,123,0.0,1.0,97,0.00,,,0.00,Wunderground v.1.15,2013-01-18 04:35:00,
2013-01-17 22:40:00,29.2,28.5,30.35,ESE,115,0.0,1.0,97,0.00,,,0.00,Wunderground v.1.15,2013-01-18 04:40:00,
2013-01-17 22:45:00,29.4,28.7,30.35,SE,127,1.0,1.0,97,0.00,,,0.00,Wunderground v.1.15,2013-01-18 04:45:00,
2013-01-17 22:50:00,29.4,28.7,30.35,SE,135,0.0,1.0,97,0.00,,,0.00,Wunderground v.1.15,2013-01-18 04:50:00,
2013-01-17 22:55:00,29.4,28.7,30.35,ESE,115,0.0,1.0,97,0.00,,,0.00,Wunderground v.1.15,2013-01-18 04:55:00,
2013-01-17 23:00:00,29.6,28.9,30.35,SE,128,0.0,1.0,97,0.00,,,0.00,Wunderground v.1.15,2013-01-18 05:00:00,
2013-01-17 23:10:00,29.7,28.7,30.34,ESE,113,1.0,1.0,96,0.00,,,0.00,Wunderground v.1.15,2013-01-18 05:10:00,
2013-01-17 23:15:00,29.7,28.7,30.34,ESE,110,0.0,1.0,96,0.00,,,0.00,Wunderground v.1.15,2013-01-18 05:15:00,
2013-01-17 23:25:00,29.7,28.7,30.34,ESE,110,1.0,1.0,96,0.00,,,0.00,Wunderground v.1.15,2013-01-18 05:25:00,
2013-01-17 23:35:00,29.8,28.5,30.34,SE,132,0.0,1.0,95,0.00,,,0.00,Wunderground v.1.15,2013-01-18 05:35:00,
2013-01-17 23:40:00,29.8,28.5,30.34,SE,132,0.0,1.0,95,0.00,,,0.00,Wunderground v.1.15,2013-01-18 05:40:00,
2013-01-17 23:45:00,29.9,28.6,30.33,SE,127,0.0,1.0,95,0.00,,,0.00,Wunderground v.1.15,2013-01-18 05:45:00,
2013-01-17 23:50:00,30.0,28.7,30.33,SE,141,0.0,1.0,95,0.00,,,0.00,Wunderground v.1.15,2013-01-18 05:50:00,